Weather History for KMFR - July, 2013

Change the Weather History Date:

Monday, July 29, 2013

  Actual Average Record
Temperature  
Mean Temperature 74 °F 76 °F  
Max Temperature 90 °F 93 °F 109 °F (2009)
Min Temperature 58 °F 59 °F 44 °F (1950)
Degree Days  
Heating Degree Days 0 0  
Month to date heating degree days 0 1  
Since 1 June heating degree days 35 55  
Since 1 July heating degree days 0 1  
Cooling Degree Days 9 11  
Month to date cooling degree days 417 266  
Year to date cooling degree days 598 412  
Since 1 June cooling degree days 563 374  
Growing Degree Days 24 (Base 50)    
Moisture  
Dew Point 41 °F    
Average Humidity 36    
Maximum Humidity 57    
Minimum Humidity 14    
Precipitation  
Precipitation 0.00 in 0.00 in 0.22 in (1964)
Month to date precipitation 0.00 0.26  
Year to date precipitation 4.13 9.72  
Snow  
Snow 0.00 in 0.00 in - ()
Month to date snowfall 0.0 0.0  
Since 1 July snowfall 0.0 0.0  
Snow Depth 0.00 in    
Sea Level Pressure  
Sea Level Pressure 29.90 in    
Wind  
Wind Speed 4 mph (NW)    
Max Wind Speed 17 mph    
Max Gust Speed 22 mph    
Visibility 7 miles    
Events      
T = Trace of Precipitation, MM = Missing Value Source: NWS Daily Summary

Daily Weather History Graph

Daily Weather History Graph

Search for Another Location

Airport or City:

Trip Planner

Search our weather history database for the weather conditions in past years. The results will help you decide how hot, cold, wet, or windy it might be!

Date:

Astronomy

Jul. 29, 2013 Rise Set
Actual Time 6:01 AM PDT 8:33 PM PDT
Civil Twilight 5:29 AM PDT 9:05 PM PDT
Nautical Twilight 4:49 AM PDT 9:45 PM PDT
Astronomical Twilight 4:03 AM PDT 10:30 PM PDT
Moon No Moon Rise 1:59 PM PDT (7/29)
Length of Visible Light 15h 36m
Length of Day
14h 32m
Waning Gibbous, 50% of the Moon is Illuminated
Jul 29
Waning Gibbous
Aug 6
New
Aug 14
First Quarter
Aug 20
Full
Aug 28
Last Quarter

Hourly Weather History & Observations

Time (PDT) Temp. Dew Point Humidity Pressure Visibility Wind Dir Wind Speed Gust Speed Precip Events Conditions
12:53 AM 66.0 °F 41.0 °F 40% 29.88 in 10.0 mi South 4.6 mph - N/A   Clear
1:53 AM 63.0 °F 41.0 °F 45% 29.88 in 10.0 mi Calm Calm - N/A   Clear
2:53 AM 59.0 °F 42.1 °F 53% 29.88 in 10.0 mi ENE 3.5 mph - N/A   Clear
3:53 AM 60.1 °F 42.1 °F 51% 29.89 in 10.0 mi Calm Calm - N/A   Clear
4:53 AM 57.9 °F 42.1 °F 56% 29.89 in 10.0 mi Calm Calm - N/A   Clear
5:53 AM 59.0 °F 43.0 °F 55% 29.90 in 10.0 mi Calm Calm - N/A   Clear
6:53 AM 59.0 °F 44.1 °F 58% 29.91 in 10.0 mi SW 3.5 mph - N/A   Clear
7:53 AM 62.1 °F 43.0 °F 50% 29.91 in 7.0 mi Calm Calm - N/A   Clear
8:53 AM 63.0 °F 45.0 °F 52% 29.92 in 6.0 mi North 4.6 mph - N/A   Haze
9:53 AM 68.0 °F 45.0 °F 43% 29.91 in 5.0 mi Calm Calm - N/A   Haze
10:53 AM 72.0 °F 45.0 °F 38% 29.90 in 6.0 mi Calm Calm - N/A   Haze
11:53 AM 77.0 °F 44.1 °F 31% 29.88 in 4.0 mi Calm Calm - N/A   Haze
12:53 PM 81.0 °F 43.0 °F 26% 29.87 in 4.0 mi Calm Calm - N/A   Haze
1:53 PM 86.0 °F 43.0 °F 22% 29.85 in 8.0 mi North 6.9 mph - N/A   Clear
2:53 PM 88.0 °F 42.1 °F 20% 29.84 in 9.0 mi WNW 6.9 mph - N/A   Clear
3:53 PM 90.0 °F 37.9 °F 16% 29.84 in 6.0 mi WNW 13.8 mph - N/A   Haze
4:53 PM 89.1 °F 34.0 °F 14% 29.84 in 5.0 mi West 12.7 mph - N/A   Haze
5:53 PM 87.1 °F 42.1 °F 21% 29.86 in 2.5 mi WNW 10.4 mph - N/A   Haze
6:53 PM 84.0 °F 41.0 °F 22% 29.87 in 1.0 mi WNW 9.2 mph - N/A   Smoke
7:27 PM 82.4 °F 37.4 °F 20% 29.91 in 3.0 mi North 5.8 mph - N/A   Smoke
7:53 PM 82.0 °F 36.0 °F 19% 29.89 in 5.0 mi North 8.1 mph - N/A   Smoke
8:53 PM 75.0 °F 37.0 °F 25% 29.93 in 6.0 mi NE 4.6 mph - N/A   Smoke
9:53 PM 75.0 °F 39.9 °F 28% 29.96 in 10.0 mi Calm Calm - N/A   Smoke
10:53 PM 73.0 °F 41.0 °F 31% 29.97 in 10.0 mi Calm Calm - N/A   Smoke
11:18 PM 71.6 °F 44.6 °F 38% 30.00 in 2.0 mi Calm Calm - N/A   Smoke
11:53 PM 68.0 °F 42.1 °F 39% 29.98 in 7.0 mi Calm Calm - N/A   Smoke